Location: ???????
(56.3195°N, 29.5105°E)
Time: 23:55:11
(UTC+00:00)

Daily predictions for brighter satellites

Satellite Brightness Start Highest point End
(mag) Time Altitude Azimuth Time Altitude Azimuth Time Altitude Azimuth
CSL-04 Debris 4.3 16:39:07 10° SSE 16:44:32 86° WSW 16:49:58 10° NNW
GP-B 3.4 16:40:20 10° N 16:44:48 75° W 16:49:13 10° S
Cosmos 1603 4.4 16:39:22 10° NW 16:44:59 60° WSW 16:50:31 10° SSE
PSLV R/B 4.3 16:42:12 10° NNE 16:46:22 73° WNW 16:50:32 10° SSW
SKYMED 2 3.9 16:42:13 10° NNE 16:46:34 74° WNW 16:50:54 10° SSW
Cosmos 1867 3.8 16:45:03 10° NW 16:50:33 75° SW 16:56:00 10° SE
Timation 1 Rocket 4.4 16:45:03 10° SSW 16:50:57 67° ESE 16:56:54 10° NE
Cosmos 1898 Rocket 3.6 16:48:22 10° S 16:53:22 53° ESE 16:58:27 10° NE
YAOGAN 1 3.4 16:49:10 10° S 16:53:25 55° WSW 16:57:42 10° NNW
ADEOS Rocket 4.4 16:48:34 10° N 16:53:46 39° WNW 16:58:47 10° SW
CSL-04 Rocket 3.9 16:48:56 10° SSE 16:54:22 78° WSW 16:59:56 10° NNW
Okean 2 4.0 16:51:48 10° NNW 16:55:58 64° W 17:00:05 10° S
Cosmos 1536 Rocket 4.2 16:54:26 10° N 16:58:36 38° ENE 17:02:45 10° SE
HJ-1C 3.6 16:56:08 10° S 16:59:26 72° WSW 17:02:45 10° NNW
NOSS 3-2 (C) 4.0 16:56:09 10° NW 17:03:10 74° NNE 17:11:17 10° ESE
USA 229 DEB 3.9 16:56:35 10° WSW 17:03:14 76° NNW 17:10:22 10° NE
USA 229 3.9 16:56:41 10° WSW 17:03:20 77° NNW 17:10:28 10° NE
Cosmos 1626 4.0 17:04:33 10° NNE 17:06:50 15° ENE 17:08:46 11° E
Cosmos 2233 Rocket 4.1 17:01:41 10° S 17:07:55 87° W 17:14:10 10° NNE
NOSS 2-3 (C) 4.1 17:03:33 10° WSW 17:08:06 78° NW 17:13:51 10° NE
Cosmos 807 4.4 17:07:27 10° S 17:10:40 70° E 17:14:36 10° NNE
Meteor 2-11 Rocket 4.5 17:04:51 10° S 17:11:01 83° ESE 17:17:13 10° NNE
Nadezhda 4 Rocket 4.1 17:05:45 10° N 17:11:47 55° ENE 17:17:46 10° SSE
Cosmos 1025 Rocket 3.1 17:08:39 10° N 17:12:59 60° ENE 17:17:20 10° SSE
CREW DRAGON DEMO-1 DEB 3.8 17:11:14 10° WSW 17:14:00 33° S 17:16:06 15° ESE
Cosmos 1782 Rocket 3.5 17:09:35 10° S 17:14:01 81° ESE 17:18:30 10° NNE
NOSS 3-1 (A) 3.7 17:09:31 10° WSW 17:15:21 78° NNW 17:22:21 10° NE
Cosmos 2151 Rocket 4.4 17:11:40 10° SSE 17:15:34 30° E 17:19:30 10° NNE
Cosmos 1908 Rocket 4.2 17:11:58 10° SSW 17:16:17 61° WNW 17:20:40 10° N
Cosmos 1975 3.0 17:12:24 10° SSW 17:16:30 80° WNW 17:20:36 10° N
CZ-4 R/B 3.6 17:13:09 10° SSW 17:16:53 30° W 17:20:37 10° NNW
Cosmos 2082 Rocket 3.7 17:13:36 10° NNW 17:18:12 25° NNE 17:22:47 10° E
Cosmos 2034 Rocket 4.4 17:14:29 10° SSE 17:20:23 42° E 17:26:18 10° NNE
USA 186 1.7 17:18:42 10° SSE 17:21:51 85° ENE 17:25:08 10° NNW
MOS 1 Rocket 3.1 17:17:47 10° NNE 17:22:23 68° ESE 17:26:45 10° S
Cosmos 1937 Rocket 3.5 17:17:57 10° SSW 17:23:09 66° ESE 17:28:20 10° NNE
COSMOS 2406 4.0 17:20:42 10° NNW 17:25:59 37° NE 17:30:13 15° E
NOSS 8 (E) 4.1 17:24:39 10° SW 17:27:40 59° SE 17:30:45 10° ENE
Meteor 1-24 Rocket 4.4 17:23:06 10° N 17:28:04 34° ENE 17:31:59 16° ESE
Cosmos 2297 Rocket 4.0 17:23:47 10° W 17:28:52 33° NW 17:33:59 10° NNE
OBJECT-B 1.1 17:28:11 15° SE 17:30:37 45° ENE 17:33:46 10° N
NOSS 2-2 (E) 3.9 17:28:02 10° S 17:31:15 32° SE 17:35:00 10° ENE
Cosmos 1674 3.0 17:28:09 10° N 17:31:54 46° ENE 17:34:53 15° SE
In-Cosmos 22 4.1 17:26:42 10° NNW 17:32:02 89° ENE 17:37:22 10° SSE
Cosmos 1975 Rocket 4.3 17:28:19 10° NNW 17:32:29 44° W 17:36:34 10° SSW
FREGAT/IRIS 2.2 17:34:35 12° SSE 17:36:58 86° W 17:39:35 10° NNW
ATLAS 2AS CENTAUR R/B 4.3 17:37:35 15° E 17:37:35 15° E 17:41:16 10° ENE
SL-14 R/B 4.4 17:35:52 10° N 17:39:13 26° ENE 17:40:43 21° E
NOSS 2-2 (D) 3.9 17:36:32 10° S 17:39:42 30° SE 17:43:19 10° ENE
CZ-2C R/B 2.8 17:35:09 10° NNE 17:40:33 53° E 17:46:00 10° S
H-2A R/B 3.3 17:37:43 10° SSW 17:42:25 41° W 17:47:15 10° NNW
ARGOS 3.9 17:37:25 10° S 17:42:40 53° W 17:47:57 10° NNW
Cosmos 1707 3.6 17:40:20 10° NNW 17:44:05 51° W 17:47:48 10° S
CENTAUR R/B 3.2 17:36:32 10° NW 17:44:16 88° SW 17:51:22 17° SE
Resurs 01 Rocket 2.0 17:41:42 18° SE 17:44:44 47° ENE 17:49:02 10° N
Lacrosse 4 Rocket 3.0 17:43:51 10° NNW 17:47:11 24° NNE 17:49:36 15° ENE
MOS 1 4.5 17:42:31 10° SSE 17:48:13 78° WSW 17:53:59 10° NNW
Cosmos 1048 Rocket 4.1 17:43:34 10° NNW 17:48:53 79° WSW 17:53:54 12° SSE
KORONAS-FOTON 3.8 17:45:23 10° N 17:49:19 66° ENE 17:52:09 18° SSE
ATLAS 3B R/B 3.0 17:43:50 10° NW 17:50:31 61° NNE 17:55:35 19° E
SJ-6B 3.0 17:46:53 10° S 17:50:35 66° WSW 17:54:22 10° NNW
USA 238 DEB 4.1 17:44:50 10° NW 17:51:54 67° SW 17:58:11 15° SSE
Sich 1 Rocket 3.8 17:47:27 10° SSW 17:51:57 75° WNW 17:56:33 10° N
USA 238 4.1 17:44:56 10° NW 17:52:00 67° SW 17:58:16 15° SSE
Cosmos 1844 4.4 17:49:58 10° SSE 17:54:47 29° ESE 17:59:35 10° NE
SPOT 1/Viking Rocket 4.4 17:53:08 22° ESE 17:55:42 34° ENE 18:00:20 10° N
NOSS 3-1 (C) 4.3 17:51:07 10° W 17:57:03 53° NNW 18:04:09 10° ENE
ATLAS CENTAUR R/B 2.9 17:53:40 10° W 17:57:03 29° NNW 18:00:22 10° NE
Cosmos 1269 Rocket 4.2 17:52:39 10° NNW 17:57:57 59° NE 18:01:04 24° SE
Cosmos 1766 4.1 17:58:19 28° ESE 17:58:52 29° E 18:02:20 10° NNE
Cosmos 2263 Rocket 2.4 17:53:53 10° SW 17:59:28 75° NW 18:05:07 10° NNE
SWAS 4.5 17:55:43 10° NW 18:00:03 81° WSW 18:02:37 24° SSE
ARIANE 5 R/B 3.1 18:00:10 27° ESE 18:02:03 43° ENE 18:06:10 10° N
IGS 5A 4.2 18:00:39 27° ESE 18:02:05 36° ENE 18:05:54 10° N
MetOp-B 4.4 17:59:48 23° SE 18:03:03 54° ENE 18:08:16 10° N
Cosmos 1844 Rocket 3.0 18:01:38 10° S 18:06:48 40° ESE 18:12:01 10° NE
SJ 16-02 3.5 18:04:15 10° WSW 18:08:07 29° NW 18:11:59 10° NNE
Cosmos 1464 Rocket 4.1 18:02:29 10° SSW 18:08:38 80° WNW 18:14:51 10° N
ISS -1.3 18:07:46 10° SSW 18:08:14 12° S 18:08:14 12° S
Spot 2 Rocket 3.9 18:07:55 27° ESE 18:10:12 45° ENE 18:15:01 10° N
Cosmos 1092 Rocket 3.9 18:04:02 10° N 18:10:14 83° ENE 18:15:35 14° SSE
Abrixas rocket 4.0 18:10:01 10° SW 18:11:15 16° SSW 18:11:15 16° SSW
Okean 2 Rocket 3.3 18:07:42 10° SSW 18:12:12 72° WNW 18:16:42 10° N
Cosmos 2195 Rocket 4.4 18:07:16 10° N 18:13:37 79° ENE 18:18:32 17° SSE
Okean 1 Rocket 3.2 18:14:13 24° SSE 18:16:42 53° E 18:21:06 10° NNE
Ariane Rocket 4.1 18:12:17 10° S 18:17:05 42° W 18:21:56 10° NNW
Lacrosse 5 rocket 1.5 18:12:49 10° W 18:17:12 84° N 18:19:36 27° E
GRACE-FO 1 4.5 18:14:00 10° N 18:17:47 78° E 18:19:28 31° S
Cosmos 2026 Rocket 4.0 18:11:27 10° N 18:17:49 75° ENE 18:22:21 21° SSE
Meteor 1-12 Rocket 4.5 18:12:11 10° SSW 18:18:06 76° WNW 18:23:56 10° NNE
GRACE-FO 2 4.5 18:14:23 10° N 18:18:09 79° E 18:19:50 31° S
Meteor 1-15 Rocket 4.2 18:12:58 10° S 18:18:33 68° E 18:24:16 10° NNE
Cosmos 1340 Rocket 4.2 18:19:45 23° ENE 18:19:45 23° ENE 18:22:04 10° NE
Meteor 2-13 Rocket 4.5 18:13:20 10° NNW 18:19:33 85° W 18:24:57 14° S
Cosmos 494 Rocket 4.3 18:16:52 10° NNW 18:22:06 66° WSW 18:25:34 21° S
Cosmos 1833 Rocket 3.0 18:18:01 10° NNW 18:23:37 56° NE 18:26:05 32° ESE
Resurs 1-3 4.0 18:20:34 16° S 18:23:58 61° WSW 18:28:21 10° NNW
NOSS 2-2 (C) 3.1 18:20:30 10° SW 18:24:04 64° SE 18:28:17 10° NE
CZ-2C R/B 3.7 18:20:48 10° NNE 18:25:11 56° ESE 18:27:16 29° SSE
Cosmos 1300 Rocket 4.2 18:21:12 10° SSW 18:25:33 57° WNW 18:29:58 10° N
Cosmos 2227 Rocket 4.4 18:22:01 10° WNW 18:26:32 24° NNW 18:31:04 10° NNE
Cosmos 2298 Rocket 3.9 18:21:19 10° SSW 18:26:39 75° ESE 18:32:00 10° NNE
SPOT 3 Rocket 3.8 18:22:58 16° S 18:27:07 67° WSW 18:32:16 10° NNW
Cosmos 1428 Rocket 4.4 18:23:54 10° N 18:30:15 84° ENE 18:34:19 23° SSE
Cosmos 2251 Rocket 4.3 18:25:25 10° NNW 18:30:31 41° NE 18:32:21 31° E
USA 245 3.8 18:33:53 29° NNE 18:33:53 29° NNE 18:35:19 10° N
USA 234 3.5 18:31:49 11° ENE 18:37:44 42° SE 18:43:52 10° SSW
H-2A R/B 4.5 18:34:05 10° NNE 18:37:00 30° ENE 18:37:00 30° ENE
Cosmos 2279 Rocket 4.3 18:36:17 34° SE 18:38:25 45° E 18:44:21 10° NNE
Terra 2.7 18:40:19 32° ENE 18:41:02 33° ENE 18:45:18 10° N
Cosmos 1892 Rocket 3.4 18:37:40 10° N 18:42:02 74° ENE 18:42:56 53° SE
Cosmos 1626 2.1 18:38:52 10° NNW 18:42:36 76° W 18:43:18 55° SSW
DMSP B5D2-2 4.4 18:38:15 10° NNE 18:43:32 67° WNW 18:48:46 10° SSW
Meteor 2-5 Rocket 4.0 18:38:45 10° NNW 18:44:19 66° W 18:48:05 22° S
CARTOSAT-1 3.7 18:52:23 52° E 18:52:40 53° ENE 18:56:53 10° N
Cosmos 2150 Rocket 4.2 18:51:27 10° SSW 18:56:51 77° WNW 19:02:22 10° NNE
SPOT 5 3.1 19:00:55 51° ESE 19:01:53 61° ENE 19:07:09 10° NNW
Cosmos 1805 3.7 19:00:43 32° SW 19:02:18 59° WNW 19:06:12 10° N
OBJECT-B 3.5 19:01:22 12° SW 19:03:13 18° W 19:05:31 10° NW
Cosmos 2082 Rocket 2.3 18:57:46 10° NNW 19:03:22 63° NE 19:04:43 48° ESE
Meteor 1-22 Rocket 4.2 19:00:49 30° S 19:03:52 78° ESE 19:09:58 10° NNE
NOSS 3-1 (A) 4.5 19:01:02 10° W 19:07:05 48° N 19:14:18 10° ENE
Cosmos 1125 Rocket 3.5 19:02:26 10° SSW 19:07:46 87° WNW 19:13:09 10° NNE
Okean 1-7 Rocket 3.6 19:04:03 10° NNW 19:08:40 85° W 19:09:14 68° S
Exosat Rocket 3.4 19:03:48 10° SSW 19:09:07 86° ESE 19:14:11 10° NNE
COSMOS 2406 3.3 19:05:04 10° NW 19:10:43 69° WSW 19:12:17 47° S
Meteor 1-24 Rocket 4.2 19:06:08 10° NNW 19:11:26 53° W 19:14:11 28° SSW
SL-14 R/B 4.2 19:11:50 10° NNW 19:15:32 41° W 19:16:10 38° WSW
Cosmos 1726 4.4 19:19:59 16° NE 19:19:59 16° NE 19:20:51 10° NNE
Cosmos 1733 3.8 19:17:22 51° WSW 19:17:48 55° WNW 19:21:36 10° N
ERS-1 Rocket 2.8 19:17:24 68° SSE 19:18:04 85° ENE 19:23:08 10° NNW
Cosmos 2266 Rocket 3.8 19:13:43 10° N 19:19:48 72° ENE 19:21:01 56° SE
Cosmos 614 Rocket 4.4 19:15:05 10° NNW 19:20:06 46° NE 19:20:34 44° ENE
CZ-2C R/B 4.2 19:15:43 10° N 19:20:43 37° WNW 19:25:47 10° SW
Cosmos 2098 Rocket 4.1 19:13:48 10° NNW 19:21:15 86° E 19:23:23 48° SSE
Resurs 01 Rocket 3.3 19:19:16 20° SW 19:21:26 30° W 19:25:22 10° NNW
NOSS 2-2 (E) 4.0 19:17:51 10° WSW 19:21:33 56° NNW 19:26:14 10° NE
Cosmos 1602 Rocket 4.0 19:19:28 10° N 19:23:14 52° NE 19:23:14 52° NE
Cosmos 1655 Rocket 3.9 19:19:30 10° NNW 19:25:48 87° WSW 19:27:33 51° S
Meteor 1-21 Rocket 4.2 19:20:07 10° NNW 19:25:51 77° ENE 19:26:43 64° SE
Cosmos 1953 4.3 19:28:08 19° NE 19:28:08 19° NE 19:29:33 10° NNE
Lacrosse 4 Rocket 1.6 19:22:22 10° NW 19:25:54 63° NNW 19:25:54 63° NNW
ATLAS 2AS CENTAUR R/B 3.1 19:24:47 43° SSE 19:26:33 50° SE 19:34:01 10° NE
NOSS 2-2 (D) 3.9 19:26:19 10° WSW 19:29:59 57° NNW 19:32:27 24° NE
CENTAUR R/B 4.1 19:27:27 10° WNW 19:34:35 37° WSW 19:38:32 25° SSW
SPOT 1/Viking Rocket 4.0 19:33:46 44° SW 19:34:58 54° W 19:40:03 10° NNW
Cosmos 1470 3.9 19:38:04 39° N 19:38:04 39° N 19:40:36 10° NNE
ATLAS CENTAUR R/B 3.1 19:33:50 10° NW 19:36:52 23° N 19:37:31 22° NNE
Cosmos 1626 Rocket 3.7 19:33:39 10° NNW 19:37:37 71° NNW 19:37:37 71° NNW
Cosmos 1844 3.8 19:32:50 10° SW 19:38:32 72° NW 19:44:11 10° NNE
Cosmos 2278 Rocket 3.3 19:40:44 30° ENE 19:40:44 30° ENE 19:43:54 10° NE
ARIANE 5 R/B 4.0 19:37:43 29° WSW 19:38:38 31° W 19:42:33 10° NNW
Cosmos 1634 Rocket 4.5 19:34:23 16° SSW 19:39:18 57° WNW 19:45:27 10° N
ATLAS 3B R/B 2.9 19:34:41 10° NW 19:41:22 61° SW 19:42:49 51° S
Cosmos 2263 Rocket 4.2 19:39:34 10° W 19:44:19 27° NNW 19:49:05 10° NNE
Cosmos 2285 Rocket 4.3 19:38:27 10° SW 19:44:44 65° NW 19:51:06 10° NNE
Cosmos 1455 Rocket 3.4 19:45:54 62° NNW 19:45:54 62° NNW 19:49:43 10° N
Meteor 2-10 4.1 19:48:52 69° ENE 19:48:52 69° ENE 19:53:57 10° NNE
NOSS 3-1 (C) 4.4 19:42:44 10° WNW 19:49:04 50° N 19:54:08 21° ENE
Cosmos 909 Rocket 4.0 19:42:24 10° NW 19:49:07 70° SW 19:50:00 62° S
Cosmos 1844 Rocket 3.3 19:45:09 10° SW 19:50:37 54° NW 19:56:09 10° NNE
Cosmos 2084 4.4 19:47:32 10° NW 19:51:50 44° NNE 19:51:50 44° NNE
Meteor 2-14 Rocket 4.3 19:47:21 10° N 19:53:32 78° ENE 19:54:01 73° ESE
Cosmos 1340 Rocket 4.0 19:55:19 41° NW 19:55:19 41° NW 19:58:50 10° N
Lacrosse 5 rocket 2.4 19:52:03 10° WNW 19:55:13 46° W 19:55:13 46° W
Meteor 1-11 4.4 19:51:21 10° N 19:56:45 59° ENE 19:56:45 59° ENE
Meteor 2-16 Rocket 4.4 20:00:01 10° N 20:06:10 70° ENE 20:06:18 69° E
Cosmos 1833 Rocket 3.5 20:02:12 10° NW 20:07:26 39° WSW 20:07:46 39° WSW
Cosmos 1461 3.7 20:03:03 10° NW 20:07:04 57° NNW 20:07:04 57° NNW
Cosmos 407 Rocket 3.7 20:05:22 10° NNW 20:09:56 64° NNE 20:09:56 64° NNE
Cosmos 2251 Rocket 4.1 20:07:47 10° NW 20:12:49 50° WSW 20:12:49 50° WSW
Terra 2.6 20:19:13 46° WNW 20:19:13 46° WNW 20:23:19 10° NNW
Cosmos 1244 Rocket 4.3 20:14:17 10° N 20:20:32 80° ENE 20:20:32 80° ENE
USA 234 3.1 20:14:44 10° ENE 20:21:18 80° SSE 20:27:53 10° WSW
Cosmos 1140 Rocket 3.8 20:17:19 10° NNW 20:21:42 60° N 20:21:42 60° N
MOS 1-B Rocket 4.3 20:22:37 10° NNE 20:29:16 75° ESE 20:29:47 72° SE
Meteor 1-16 Rocket 4.3 20:31:08 77° NNE 20:31:08 77° NNE 20:36:39 10° NNE
ALOS 2 4.1 20:33:26 32° NNE 20:33:26 32° NNE 20:36:09 10° N
Meteor 2-21 Rocket 4.5 20:30:04 10° NNW 20:36:14 70° W 20:36:18 70° WSW
SPOT 5 4.4 20:40:09 29° W 20:40:20 29° W 20:44:56 10° NNW
USA 229 DEB 4.2 20:40:13 10° WNW 20:47:08 58° NNE 20:49:59 37° E
Cosmos 2082 Rocket 3.4 20:42:12 10° NW 20:46:33 33° W 20:46:33 33° W
USA 229 4.2 20:40:19 10° WNW 20:47:14 58° NNE 20:50:06 37° E
COSMOS 2455 4.0 20:52:44 33° ENE 20:52:44 33° ENE 20:56:07 10° NE
Cosmos 1943 Rocket 4.1 20:54:14 19° ENE 20:54:14 19° ENE 20:56:05 10° NE
Aureole 1 Rocket 4.1 20:47:07 10° NNW 20:52:04 56° N 20:52:04 56° N
NOSS 3-4 (A) 3.5 20:54:05 79° NNW 20:54:05 79° NNW 21:00:37 10° NE
NOSS 3-4 (C) 3.5 20:54:16 79° N 20:54:16 79° N 21:00:43 10° NE
NOSS 3-1 (A) 4.3 20:52:31 10° WNW 20:59:09 57° NNE 21:02:58 31° E
Cosmos 2297 Rocket 4.3 20:56:25 10° NNW 21:00:49 22° NNE 21:05:12 10° ENE
Lacrosse 4 Rocket 4.2 21:01:45 10° WNW 21:02:11 12° WNW 21:02:11 12° WNW
CZ-4C R/B 3.7 21:16:50 29° ENE 21:16:50 29° ENE 21:20:07 10° NE
SME Rocket 4.5 21:07:49 10° NNE 21:14:24 47° NW 21:14:54 46° WNW
Cosmos 2369 Rocket 4.0 21:17:31 20° ENE 21:17:31 20° ENE 21:19:44 10° NE
ATLAS CENTAUR R/B 4.0 21:13:00 10° NW 21:13:40 14° NW 21:13:40 14° NW
ATLAS 2AS CENTAUR R/B 3.1 21:11:59 23° WSW 21:17:27 75° NNW 21:25:13 10° NE
Thor Agena Rocket 4.5 21:13:08 10° NNE 21:16:46 43° NE 21:16:46 43° NE
Cosmos 2278 Rocket 2.8 21:22:33 51° NW 21:22:38 51° NW 21:28:11 10° NNE
ATLAS 3B R/B 4.5 21:26:27 10° WNW 21:30:03 18° W 21:30:03 18° W
NOSS 3-1 (C) 3.9 21:33:46 10° NW 21:40:46 83° NE 21:41:28 75° E
Cosmos 1553 Rocket 4.2 21:45:43 65° NW 21:45:43 65° NW 21:51:48 10° N
Cosmos 2227 Rocket 3.9 21:53:39 10° NNW 21:58:34 29° NNE 22:01:46 18° ENE
USA 234 3.4 21:57:54 10° E 22:06:56 42° W 22:11:02 10° W
Meteor 2-3 Rocket 4.4 22:01:47 10° N 22:06:33 49° NE 22:06:33 49° NE
Cosmos 2219 4.4 22:07:09 10° NNW 22:12:27 37° NE 22:14:03 31° ENE
Cosmos 2154 Rocket 4.5 22:09:04 10° N 22:15:12 52° ENE 22:15:13 52° ENE
Cosmos 2074 Rocket 4.1 22:20:34 10° N 22:26:18 74° N 22:26:18 74° N
SL-16 R/B 3.2 22:27:14 43° E 22:28:14 46° ENE 22:34:06 10° NNW
Cosmos 1943 Rocket 2.7 22:35:45 58° N 22:35:45 58° N 22:40:20 10° NNE
COSMOS 2455 3.4 22:35:51 50° NW 22:36:19 51° NNW 22:42:13 10° NE
USA 229 DEB 3.9 22:31:22 10° NW 22:37:21 62° W 22:37:21 62° W
USA 229 3.9 22:31:28 10° NW 22:37:28 63° W 22:37:28 63° W
Cosmos 1656 Rocket 4.5 22:40:20 43° ENE 22:40:20 43° ENE 22:44:17 10° NE
CZ-2D R/B 3.9 22:35:27 10° NE 22:39:26 22° E 22:39:26 22° E
ATLAS 5 CENTAUR R/B 4.3 22:44:53 11° E 22:44:53 11° E 22:45:10 10° E
Meteor 2-10 Rocket 4.2 22:43:49 58° NNW 22:43:49 58° NNW 22:48:45 10° NNE
NOSS 3-4 (A) 4.4 22:41:29 21° WNW 22:45:35 48° N 22:52:17 10° ENE
NOSS 3-4 (C) 4.4 22:41:39 21° WNW 22:45:41 48° N 22:52:23 10° ENE
Cosmos 2297 Rocket 2.9 22:40:41 10° NNW 22:46:13 49° NE 22:47:05 45° ENE
NOSS 3-1 (A) 3.8 22:43:28 10° NW 22:50:19 76° WSW 22:50:19 76° WSW
Resurs 1-4 Rocket 3.5 22:49:31 10° NNE 22:53:50 28° E 22:53:50 28° E
Nadezhda 1 Rocket 4.2 22:58:04 62° E 22:58:04 62° E 23:03:52 10° NNE
Cosmos 2315 Rocket 4.4 22:58:39 54° WNW 22:58:39 54° WNW 23:04:36 10° N
Cosmos 2369 Rocket 2.5 22:59:18 63° N 22:59:18 63° N 23:04:15 10° NNE
CZ-4C R/B 2.7 23:02:01 57° NW 23:02:32 59° NNW 23:09:16 10° ENE
Cosmos 2184 Rocket 4.3 23:00:41 10° NNW 23:05:50 54° WNW 23:05:50 54° WNW
Cosmos 2278 Rocket 4.3 23:04:23 13° WNW 23:08:02 23° NNW 23:12:28 10° NNE
ATLAS 2AS CENTAUR R/B 3.7 23:01:45 10° W 23:09:27 50° N 23:16:47 10° ENE
Cosmos 2263 Rocket 4.3 23:11:28 10° NNW 23:16:05 25° NNE 23:20:41 10° E
Helios 1B rocket 4.0 23:16:23 10° NNE 23:18:47 34° NNE 23:18:47 34° NNE
ATLAS CENTAUR R/B 4.4 23:07:30 24° WSW 23:21:20 83° SSE 23:29:01 10° ENE
IRAS Rocket 4.4 23:22:14 70° E 23:22:26 70° ENE 23:28:02 10° NNW
SL-8 Rocket 4.1 23:20:22 10° N 23:26:42 69° ENE 23:27:37 60° ESE
Cosmos 2221 3.8 23:29:14 38° NE 23:29:14 38° NE 23:32:12 10° NNE
COBE Rocket 4.2 23:31:38 65° NNE 23:31:38 65° NNE 23:36:07 10° NNW
Cosmos 2218 Rocket 4.2 23:31:28 10° N 23:37:53 70° ENE 23:39:21 53° SE
Cosmos 2366 rocket 4.1 23:34:12 10° N 23:40:29 70° ENE 23:41:56 53° SE
Meteor 2-2 Rocket 4.5 23:40:08 59° ESE 23:40:31 61° E 23:46:14 10° NNE
Cosmos 1842 Rocket 4.3 23:43:34 51° NNE 23:43:34 51° NNE 23:47:01 10° NNE
Sich 1 4.0 23:38:29 10° N 23:41:59 44° NE 23:41:59 44° NE
Cosmos 2227 Rocket 2.1 23:37:43 10° NW 23:43:26 84° NE 23:43:29 83° ENE
Cosmos 1452 Rocket 4.2 23:43:44 43° NW 23:43:44 43° NW 23:48:37 10° NNE
Cosmos 292 Rocket 4.2 23:48:09 60° NE 23:48:09 60° NE 23:52:10 10° NNE
USA 234 3.1 23:41:05 10° ESE 23:47:38 76° SSW 23:50:27 37° W
Meteor 2-12 Rocket 4.3 23:47:17 10° NNW 23:53:21 76° W 23:53:28 75° WSW
Lacrosse 5 4.3 23:53:36 11° ESE 23:53:37 11° ESE 23:54:54 10° ESE
